DateTime,Index
2006071618,0.0
2006071700,0.0
2006071706,0.0
2006071712,1225.0
2006071718,1600.0
2006071800,2025.0
2006071806,3025.0
2006071812,3600.0
2006071818,4225.0
2006071900,4900.0
2006071906,5625.0
2006071912,6400.0
2006071918,7225.0
2006072000,9025.0
2006072006,9025.0
2006072012,10000.0
2006072018,13225.0
2006072100,14400.0
2006072106,13225.0
2006072112,14400.0
2006072118,15625.0
2006072200,16900.0
2006072206,16900.0
2006072212,16900.0
2006072218,15625.0
2006072300,14400.0
2006072306,13225.0
2006072312,13225.0
2006072318,11025.0
2006072400,9025.0
2006072406,7225.0
2006072412,6400.0
2006072418,5625.0
2006072500,4225.0
2006072506,3025.0
2006072512,2025.0
2006072518,1225.0
2006072600,0.0
2006072606,0.0
2006072612,0.0
2006072618,0.0
2006072700,0.0
2006072706,0.0
2006072712,0.0
2006072718,0.0
2006072800,0.0
2006072806,0.0
2006072812,0.0
